Regional Weather Roundup
Issued by NWS

Home | Current Version | Previous Version | Graphics & Text | Print | Product List | Glossary On
Versions: 1 2 3 4 5 6 7 8 9 10 11 12 13 14 15 16 17 18 19 20 21 22 23 24 25 26 27 28 29 30 31 32 33 34 35 36 37 38 39 40 41 42 43 44 45 46 47 48 49 50
000
ASUS45 KABQ 152301
RWRNM
NEW MEXICO REGIONAL WEATHER ROUNDUP
NATIONAL WEATHER SERVICE ALBUQUERQUE NM
400 PM MST SUN JAN 15 2017

NOTE: "FAIR" MEANS FEW OR NO CLOUDS BELOW 12,000 FEET AGL WITH NO
       SIGNIFICANT WEATHER OR OBSTRUCTIONS TO VISION.

      THIS PRODUCT IS RELEASED AS TWO VERSIONS.  ONE VERSION NEAR
      THE TOP OF THE HOUR CONTAINING PRELIMINARY DATA FROM ALBUQUERQUE
      AND OTHER STATIONS.  A FINAL VERSION WITH ADDITIONAL DATA IS
      ISSUED ABOUT 10 MINUTES AFTER THE HOUR.

NMZ501-503-504-510>518-160000-
NORTHWEST PLATEAU/NORTHCENTRAL MOUNTAINS

CITY           SKY/WX    TMP DP  RH WIND       PRES   REMARKS
FARMINGTON     LGT RAIN  42  38  85 W15       29.84R
LOS ALAMOS     FOG       35  35 100 CALM      29.85S VSB<1/4
SANTA FE       CLOUDY    38  35  89 CALM      29.83S
TAOS           CLOUDY    37  27  65 N8        29.84F WCI  31
ANGEL FIRE     PTSUNNY   32  28  86 N9        29.86F WCI  24

$$
NMZ402-403-502-505>509-160000-
WESTCENTRAL MOUNTAINS/SOUTHWEST MOUNTAINS

CITY           SKY/WX    TMP DP  RH WIND       PRES   REMARKS
GALLUP         CLOUDY    42  35  76 NW7       29.88R
GRANTS         CLOUDY    42  37  82 W5        29.87R
SILVER CITY    CLOUDY    43  39  86 W24       29.91R

$$
NMZ407-409-411-412-160000-
SOUTHERN DESERTS

CITY           SKY/WX    TMP DP  RH WIND       PRES   REMARKS
DEMING         PTSUNNY   46  40  79 W23G33    29.92R
LAS CRUCES     CLOUDY    43  40  89 SW14G20   29.92R
HOLLOMAN AFB   LGT RAIN  45  43  93 W8        29.90R
ALAMOGORDO     LGT RAIN  45  41  87 SW7       29.89R
T OR C         CLOUDY    44  40  85 S5        29.86R

$$
NMZ519>523-160000-
CENTRAL VALLEYS/CENTRAL HIGHLANDS

CITY           SKY/WX    TMP DP  RH WIND       PRES   REMARKS
ALBUQUERQUE    CLOUDY    43  35  73 E8        29.85R
DOUBLE EAGLE   CLOUDY    39  36  87 CALM      29.85F
MORIARTY ARPT  CLOUDY    36  33  88 SW5       29.87R WCI  32
CLINES CORNERS FOG       31  30  96 E9        29.86R VSB 1/4 WCI  23
BELEN          CLOUDY    41  37  86 CALM      29.87R
SOCORRO        RAIN      40  38  93 NE3       29.86S

$$
NMZ524>526-539-540-160000-
SOUTHCENTRAL MOUNTAINS

CITY           SKY/WX    TMP DP  RH WIND       PRES   REMARKS
RUIDOSO        NOT AVBL

$$
NMZ527>531-160000-
NORTHEAST HIGHLANDS/NORTHEAST PLAINS

CITY           SKY/WX    TMP DP  RH WIND       PRES   REMARKS
LAS VEGAS      CLOUDY    31  30  96 NE12      29.85F WCI  22
RATON          CLOUDY    34  31  88 E7        29.86F WCI  28
CLAYTON        LGT SNOW  32  32 100 NE13      29.90F FOG     WCI  22

$$
NMZ532>537-160000-
EASTCENTRAL PLAINS

CITY           SKY/WX    TMP DP  RH WIND       PRES   REMARKS
TUCUMCARI      CLOUDY    34  33  96 NE9       29.90R WCI  27
CANNON AFB     CLOUDY    35  35 100 NE7       29.87R WCI  30
CLOVIS AIRPORT CLOUDY    36  32  87 E8        29.87R WCI  29

$$
NMZ028-029-538-160000-
SOUTHEAST PLAINS

CITY           SKY/WX    TMP DP  RH WIND       PRES   REMARKS
ROSWELL        CLOUDY    43  37  79 N9        29.85S
ARTESIA        CLOUDY    45  45 100 N10       29.85F
CARLSBAD       CLOUDY    47  41  80 N5        29.85R


$$




USA.gov is the U.S. government's official web portal to all federal, state and local government web resources and services.